Location: *
(45.9500°N, 9.0833°E)
Time: 19:53:21
(UTC+00:00)

Vanguard 2 - All Passes

Search period start: 13 June 2021 00:00
Search period end: 23 June 2021 00:00
Orbit: 552 x 2937 km, 32.9° (Epoch: 13 June)

Date Brightness Start Highest point End Pass type
(mag) Time Alt. Az. Time Alt. Az. Time Alt. Az.
13 Jun - 18:06:19 10° SSW 18:12:17 18° SSE 18:16:48 10° SE daylight
13 Jun - 20:15:00 10° SW 20:20:29 23° S 20:24:30 10° SE visible
13 Jun - 22:25:10 10° SW 22:27:53 14° SSW 22:30:16 10° SSE visible
14 Jun - 16:17:21 10° S 16:21:02 12° SSE 16:24:16 10° SE daylight
14 Jun - 18:22:51 10° SW 18:29:52 22° S 18:34:54 10° ESE daylight
14 Jun - 20:32:24 10° WSW 20:37:57 23° S 20:42:00 10° SE visible
14 Jun - 22:43:32 10° SW 22:45:13 12° SSW 22:46:44 10° S visible
15 Jun - 16:31:57 10° SSW 16:38:38 17° SSE 16:43:53 10° ESE daylight
15 Jun - 18:39:46 10° SW 18:47:27 26° S 18:52:43 10° ESE daylight
15 Jun - 20:49:58 10° WSW 20:55:24 23° SSW 20:59:23 10° SE visible
16 Jun - 16:47:49 10° SSW 16:56:14 22° SSE 17:02:23 10° ESE daylight
16 Jun - 18:56:58 10° SW 19:05:00 29° S 19:10:23 10° ESE daylight
16 Jun - 21:07:42 10° WSW 21:12:48 21° SSW 21:16:36 10° SSE visible
17 Jun - 14:58:42 10° S 15:04:30 14° SSE 15:09:26 10° SE daylight
17 Jun - 17:04:16 10° SW 17:13:50 26° SSE 17:20:28 10° ESE daylight
17 Jun - 19:14:21 10° WSW 19:22:31 30° S 19:27:57 10° SE daylight
17 Jun - 21:25:37 10° WSW 21:30:07 18° SSW 21:33:37 10° SSE visible
18 Jun - 15:13:18 10° S 15:22:03 19° SSE 15:28:54 10° ESE daylight
18 Jun - 17:21:07 10° SW 17:31:24 30° S 17:38:19 10° ESE daylight
18 Jun - 19:31:53 10° WSW 19:39:59 30° S 19:45:23 10° SE daylight
18 Jun - 21:43:49 10° WSW 21:47:22 15° SSW 21:50:17 10° S visible
19 Jun - 15:29:02 10° SSW 15:39:36 24° SSE 15:47:28 10° ESE daylight
19 Jun - 17:38:13 10° SW 17:48:59 34° S 17:56:01 10° ESE daylight
19 Jun - 19:49:32 10° WSW 19:57:25 29° SSW 20:02:43 10° SE visible
19 Jun - 22:02:47 10° SW 22:04:32 11° SW 22:06:07 10° SSW visible
20 Jun - 13:40:35 10° S 13:47:27 14° SE 13:53:27 10° ESE daylight
20 Jun - 15:45:21 10° SSW 15:57:10 29° SSE 16:05:36 10° ESE daylight
20 Jun - 17:55:33 10° WSW 18:06:32 36° S 18:13:36 10° ESE daylight
20 Jun - 20:07:19 10° WSW 20:14:47 27° SSW 20:19:54 10° SE visible
21 Jun - 13:54:54 10° S 14:04:54 19° SSE 14:13:08 10° ESE daylight
21 Jun - 16:02:04 10° SW 16:14:45 34° SSE 16:23:29 10° ESE daylight
21 Jun - 18:13:02 10° WSW 18:24:03 37° S 18:31:06 10° ESE daylight
21 Jun - 20:25:14 10° WSW 20:32:04 23° SSW 20:36:55 10° SSE visible
22 Jun - 14:10:23 10° SSW 14:22:23 25° SSE 14:31:51 10° ESE daylight
22 Jun - 16:19:05 10° SW 16:32:19 38° S 16:41:14 10° ESE daylight
22 Jun - 18:30:39 10° WSW 18:41:32 37° S 18:48:30 10° SE daylight
22 Jun - 20:43:23 10° WSW 20:49:16 19° SSW 20:53:39 10° S visible
